Location: Engelmannsreuth
(49.8125°N, 11.6497°E)
Time: 21:36:45
(UTC+00:00)

Cosmos 1980 - Pass Details

Date: 17 February 2020
Orbit: 838 x 848 km, 71.0° (Epoch: 29 March)

Event Time Altitude Azimuth Distance (km) Brightness Sun altitude
Exits shadow 03:09:09 51° 19° (NNE) 1,063 4.3 -31.3°
Drops below altitude 10° 03:13:21 10° 28° (NNE) 2,483 6.6 -30.6°
Sets 03:15:49 0° 29° (NNE) 3,423 7.5 -30.3°
